Location: Newark
(35.2672°N, 80.7344°W)
Time: 00:57:07
(UTC+00:00)

A-11 Canister half - Pass Details

Date: 28 January 2020
Orbit: 1524 x 1684 km, 47.3° (Epoch: 20 February)

Event Time Altitude Azimuth Distance (km) Brightness Sun altitude
Rises 23:06:03 0° 260° (W) 4,668 13.9 -4.5°
Reaches altitude 10° 23:09:13 10° 266° (W) 3,691 12.6 -5.1°
Maximum altitude 23:18:12 51° 340° (NNW) 1,886 9.5 -6.9°
Drops below altitude 10° 23:27:26 10° 55° (NE) 3,780 10.5 -8.7°
Enters shadow 23:28:03 - 56° (NE) 3,966 10.6 -8.8°
